Regional Weather Roundup
Issued by NWS

Home | Current Version | Previous Version | Graphics & Text | Print | Product List | Glossary On
Versions: 1 2 3 4 5 6 7 8 9 10 11 12 13 14 15 16 17 18 19 20 21 22 23 24 25 26 27 28 29 30 31 32 33 34 35 36 37 38 39 40 41 42 43 44 45 46 47 48 49 50
000
ASUS43 KMPX 050910
RWRMN
WEATHER ROUNDUP FOR MINNESOTA
NATIONAL WEATHER SERVICE TWIN CITIES/CHANHASSEN MN
300 AM CST THU MAR 05 2015


NOTE: "FAIR" INDICATES FEW OR NO CLOUDS BELOW 12,000 FEET WITH NO
SIGNIFICANT WEATHER AND/OR OBSTRUCTIONS TO VISIBILITY. N/A MEANS
CURRENT SKY AND/OR WEATHER CONDITIONS ARE NOT AVAILABLE.

MNZ060>063-068>070-051000-
   Twin Cities Metro

CITY           SKY/WX    TMP DP  RH WIND       PRES   REMARKS
TWIN CITIES    CLEAR     -5 -12  72 NW7       30.45S WCI -19
ST PAUL        CLEAR     -3 -11  68 NW8       30.47S WCI -18
CRYSTAL        CLEAR     -5 -12  72 W5        30.43F WCI -16
BLAINE         CLEAR     -6 -11  77 W6        30.42F WCI -18
LAKEVILLE      CLEAR     -8 -13  77 W6        30.43F WCI -21
EDEN PRAIRIE   CLEAR     -5 -12  72 NW6       30.43F WCI -18
SOUTH ST PAUL  CLEAR     -3 -12  67 CALM      30.45S
LAKE ELMO      FAIR      -4 -11  71 CALM      30.43F
$$
MNZ001>005-007-008-013>017-022>024-027-028-051000-
   Northwest Minnesota

CITY           SKY/WX    TMP DP  RH WIND       PRES   REMARKS
BEMIDJI        CLEAR    -16 -20  79 SW3       30.33F
HALLOCK        CLEAR    -15 -20  76 S6        30.35F WCI -29
ROSEAU         PTCLDY   -13 -18  77 SW8       30.32S WCI -30
WARROAD        CLEAR    -15 -20  76 SW5       30.31S WCI -27
THIEF RVR FALL CLEAR    -13 -26  53 S6        30.35S WCI -27
CROOKSTON      CLEAR    -11 -17  77 SW7       30.41S WCI -26
FOSSTON        CLEAR    -20 -26  76 S6        30.36S WCI -36
DETROIT LAKES  CLEAR     -9 -13  84 SW5       30.37F WCI -21
MOORHEAD       CLEAR     -8 -11  84 S5        30.43S WCI -19
PARK RAPIDS    CLEAR    -15 -21  74 W3        30.34F
MAHNOMEN       FAIR     -14 -19  79 S5        30.36F WCI -26
$$
MNZ006-009>011-018-025>026-051000-
   North Central Minnesota

CITY           SKY/WX    TMP DP  RH WIND       PRES   REMARKS
BAUDETTE       CLEAR    -18 -22  82 SW6       30.30F WCI -33
FLAG ISLAND    CLEAR    -17 -22  76 SE5       30.28F WCI -29
INTL FALLS     CLEAR    -22 -27  77 SW6       30.31F WCI -38
WASKISH        CLEAR     -9 -15  77 SW6       30.33S WCI -23
BIG FORK       CLEAR    -26 -33  68 CALM      30.33S
LONGVILLE      CLEAR    -26 -33  68 CALM      30.36S
GRAND RAPIDS   CLEAR    -15 -20  76 W3        30.31F
CRANE LAKE     CLEAR    -27 -33  75 CALM      30.36R
ORR            CLEAR    -17 -24  70 CALM      30.29S
COOK           CLEAR    -26 -31  75 CALM      30.32F
WALKER         FAIR     -16 -21  80 SW3       30.34F
$$
MNZ012-019>021-037-051000-
   Northeast Minnesota

CITY           SKY/WX    TMP DP  RH WIND       PRES   REMARKS
DULUTH         CLEAR    -10 -17  71 W9        30.31F WCI -27
ELY            CLEAR    -20 -26  76 CALM      30.29F
HIBBING        CLEAR    -25 -31  73 CALM      30.32F
EVELETH        CLEAR    -15 -20  76 W3        30.32F
DULUTH HARBOR  CLEAR    -11 -18  70 CALM      30.43S
TWO HARBORS    CLEAR     -8 -15  71 NW6       30.31F WCI -21
SILVER BAY     CLEAR    -17 -24  70 CALM      30.31S
GRAND MARAIS     N/A     -4 -14  62 NW15G23   30.34F WCI -25
G MARAIS ARPRT PTCLDY   -15 -20  76 W3        30.20F
$$
MNZ029>031-032-039>041-046>048-054>057-064-051000-
   West Central Minnesota

CITY           SKY/WX    TMP DP  RH WIND       PRES   REMARKS
FERGUS FALLS   CLEAR    -11 -17  77 SW3       30.46F
WHEATON        CLEAR    -11 -17  77 SW5       30.45F WCI -23
MORRIS         CLEAR    -13 -18  77 W5        30.41F WCI -25
ALEXANDRIA     PTCLDY   -14 -18  82 W7        30.38F WCI -30
ELBOW LAKE     FAIR     -12 -16  82 SW3       30.41F
WADENA         CLEAR    -15 -18  84 W7        30.37S WCI -31
GLENWOOD       PTCLDY   -15 -18  84 W7        30.40F WCI -31
APPLETON       CLEAR    -13 -18  77 W5        30.45F WCI -25
BENSON         CLEAR    -11 -17  77 CALM      30.43F
ORTONVILLE     CLEAR     -8 -15  71 NW5       30.43F WCI -19
MADISON        CLEAR     -8 -15  71 W8        30.46S WCI -23
WILLMAR        FAIR      -8 -15  71 W6        30.43F WCI -21
$$
MNZ033>034-036-042>043-049>051-058-059-051000-
   Central Minnesota

CITY           SKY/WX    TMP DP  RH WIND       PRES   REMARKS
ST CLOUD       CLEAR    -10 -15  78 W6        30.42S WCI -23
SAUK CENTRE    FAIR     -12 -16  82 CALM      30.41S
PAYNESVILLE    CLEAR    -16 -20  84 SW6       30.42F WCI -31
AITKIN         CLEAR    -17 -24  70 W5        30.36S WCI -29
PINE RIVER     CLEAR    -22 -27  76 CALM      30.39F
BRAINERD       CLEAR    -22 -28  74 S3        30.39S
STAPLES        PTCLDY   -20 -24  83 CALM      30.37F
LONG PRAIRIE   FAIR     -17 -22  76 CALM      30.39F
LITTLE FALLS   PTCLDY   -18 -26  69 CALM      30.41F
LITCHFIELD     CLEAR     -8 -11  84 CALM      30.42F
BUFFALO        CLEAR     -7 -12  78 CALM      30.45S
MAPLE LAKE     CLEAR     -6 -10  82 W6        30.43S WCI -19
$$
MNZ037-044-045-052-053-051000-
   East Central Minnesota

CITY           SKY/WX    TMP DP  RH WIND       PRES   REMARKS
PRINCETON      CLEAR    -11 -17  77 CALM      30.41S
MORA           CLEAR    -18 -26  69 CALM      30.41F
CAMBRIDGE      CLEAR    -15 -22  70 CALM      30.40F
RUSH CITY      MOCLDY   -12 -17  78 CALM      30.42S
MOOSE LAKE     CLEAR    -13 -18  77 CALM      30.36F
HINCKLEY       FAIR      -9 -15  77 CALM      30.40S
CLOQUET        CLEAR    -11 -18  70 W7        30.33F WCI -26
MCGREGOR       CLEAR    -13 -17  84 CALM      30.37F
$$
MNZ071>073-080-081-089-090-097-098-051000-
   Southwest Minnesota

CITY           SKY/WX    TMP DP  RH WIND       PRES   REMARKS
MONTEVIDEO     CLEAR     -8 -15  71 NW5       30.46F WCI -19
GRANITE FALLS  CLEAR     -8 -14  76 W5        30.47S WCI -20
CANBY          CLEAR     -8 -14  76 W6        30.45F WCI -21
MARSHALL       CLEAR     -8 -17  65 W7        30.44S WCI -22
REDWOOD FALLS  CLEAR     -8 -14  74 W8        30.45S WCI -24
OLIVIA         CLEAR     -6 -11  77 NW5       30.44F WCI -17
PIPESTONE      PTCLDY   -11 -15  84 CALM      30.39R
WINDOM         CLEAR     -9 -15  77 CALM      30.41F
WORTHINGTON    CLEAR     -9 -13  84 W3        30.42S
JACKSON        CLEAR     -6 -13  71 W7        30.42S WCI -20
TRACY          CLEAR     -6 -13  72 W6        30.43S WCI -19
SLAYTON        CLEAR    -11 -18  71 CALM      30.40S
$$
MNZ065>067-074>077-082>085-091>093-051000-
   South Central Minnesota

CITY           SKY/WX    TMP DP  RH WIND       PRES   REMARKS
MANKATO        CLEAR     -4  -9  77 NW6       30.43F WCI -16
NEW ULM        FAIR      -9 -15  77 NW8       30.45S WCI -26
ST JAMES       FAIR      -6 -11  77 W6        30.45F WCI -18
FAIRMONT       CLEAR     -4 -11  71 NW6       30.41F WCI -16
GLENCOE        CLEAR     -6 -11  80 W7        30.44S WCI -20
FARIBAULT      CLEAR     -9 -13  84 CALM      30.42F
OWATONNA       CLEAR     -9 -15  77 CALM      30.41F
WASECA         CLEAR     -9 -13  84 W5        30.44F WCI -21
ALBERT LEA     CLEAR     -6 -11  77 CALM      30.41S
$$
MNZ078>079-086>088-094>096-051000-
   Southeast Minnesota

CITY           SKY/WX    TMP DP  RH WIND       PRES   REMARKS
ROCHESTER      CLEAR     -9 -15  75 NW10      30.38F WCI -27
RED WING       CLEAR    -11 -18  70 CALM      30.44F
STANTON        CLEAR     -7 -13  73 CALM      30.42F
DODGE CENTER   PTCLDY    -6 -11  77 NW7       30.38S WCI -20
WINONA         CLEAR      0  -9  65 NW6       30.46S WCI -12
AUSTIN         CLEAR     -6 -11  77 NW5       30.40S WCI -17
PRESTON        CLEAR     -9 -15  76 NW10      30.39S WCI -28
$$
ABBREVIATIONS USED IN REMARKS
   TC - TEMPERATURES IN CELSIUS
  WCI - WIND CHILL INDEX
   HX - HEAT INDEX
  VSB - VISIBILITY
$$


USA.gov is the U.S. government's official web portal to all federal, state and local government web resources and services.